Gerona, Spain

2:04 AM CET on February 20, 2017 (GMT +0100)
Girona

Weather History for LEGE - February, 2013

Change the Weather History Date:

Sunday, February 24, 2013

  Actual Average Record
Temperature  
Mean Temperature 34 °F -  
Max Temperature 46 °F 62 °F 68 °F (2007)
Min Temperature 21 °F 39 °F 21 °F (2013)
Degree Days  
Heating Degree Days 32    
Moisture  
Dew Point 22 °F    
Average Humidity 67    
Maximum Humidity 93    
Minimum Humidity 32    
Precipitation  
Precipitation 0.00 in 0.07 in - ()
Sea Level Pressure  
Sea Level Pressure 29.87 in    
Wind  
Wind Speed 2 mph ()    
Max Wind Speed 9 mph    
Max Gust Speed -    
Visibility 6.3 miles    
Events      
Averages and records for this station are not official NWS values.
T = Trace of Precipitation, MM = Missing Value Source: Averaged Metar Reports

Daily Weather History Graph

Daily Weather History Graph

Search for Another Location

Airport or City:

Trip Planner

Search our weather history database for the weather conditions in past years. The results will help you decide how hot, cold, wet, or windy it might be!

Date:

Astronomy

Feb. 24, 2013 Rise Set
Actual Time 7:31 AM CET 6:33 PM CET
Civil Twilight 7:03 AM CET 7:01 PM CET
Nautical Twilight 6:31 AM CET 7:33 PM CET
Astronomical Twilight 5:58 AM CET 8:06 PM CET
Moon 5:28 PM CET (2/24) 6:20 AM CET (2/24)
Length of Visible Light 11h 57m
Length of Day
11h 01m
Waxing Gibbous, 98% of the Moon is Illuminated
Feb 24
Waxing Gibbous
Feb 25
Full
Mar 4
Last Quarter
Mar 11
New
Mar 19
First Quarter

Hourly Weather History & Observations

Time (CET) Temp. Windchill Dew Point Humidity Pressure Visibility Wind Dir Wind Speed Gust Speed Precip Events Conditions
12:00 AM 26.6 °F - 17.6 °F 69% 29.83 in 6.2 mi WNW 1.2 mph - N/A   Partly Cloudy
12:30 AM 26.6 °F - 17.6 °F 69% 29.83 in 6.2 mi Calm Calm - N/A   Partly Cloudy
1:00 AM 27 °F - 20 °F 67% 29.85 in 9 mi ENE 3.5 mph - -   Scattered Clouds
1:00 AM 24.8 °F - 19.4 °F 80% 29.83 in 6.2 mi Variable 2.3 mph - N/A   Partly Cloudy
1:30 AM 23.0 °F - 17.6 °F 80% 29.83 in 6.2 mi Calm Calm - N/A   Partly Cloudy
2:00 AM 24.8 °F - 17.6 °F 74% 29.83 in - West 1.2 mph - N/A   Clear
2:30 AM 23.0 °F - 19.4 °F 86% 29.83 in - Variable 1.2 mph - N/A   Clear
3:00 AM 24.8 °F - 19.4 °F 80% 29.83 in - Calm Calm - N/A   Clear
3:30 AM 23.0 °F - 19.4 °F 86% 29.83 in - Variable 2.3 mph - N/A   Clear
4:00 AM 23.0 °F - 19.4 °F 86% 29.83 in - Calm Calm - N/A   Clear
4:30 AM 23.0 °F - 19.4 °F 86% 29.80 in - Variable 1.2 mph - N/A   Clear
5:00 AM 23.0 °F - 19.4 °F 86% 29.80 in - Variable 1.2 mph - N/A   Clear
5:30 AM 21.2 °F - 19.4 °F 93% 29.83 in - Calm Calm - N/A   Clear
6:00 AM 21.2 °F 16.4 °F 19.4 °F 93% 29.83 in - NNE 3.5 mph - N/A   Clear
6:30 AM 21.2 °F - 17.6 °F 86% 29.83 in - Calm Calm - N/A   Clear
7:00 AM 24 °F - 20 °F 80% 29.86 in 6 mi Calm Calm - -   Scattered Clouds
7:00 AM 21.2 °F - 19.4 °F 93% 29.83 in 6.2 mi Calm Calm - N/A   Partly Cloudy
8:00 AM 21.2 °F - 17.6 °F 86% 29.86 in 6.2 mi Variable 1.2 mph - N/A   Partly Cloudy
8:30 AM 24.8 °F - 19.4 °F 80% 29.86 in 6.2 mi NW 2.3 mph - N/A   Partly Cloudy
9:00 AM 24.8 °F 19.1 °F 19.4 °F 80% 29.86 in 6.2 mi ENE 4.6 mph - N/A   Partly Cloudy
9:30 AM 28.4 °F - 23.0 °F 80% 29.86 in 6.2 mi Variable 1.2 mph - N/A   Partly Cloudy
10:00 AM 32.0 °F - 23.0 °F 69% 29.86 in 6.2 mi Variable 1.2 mph - N/A   Partly Cloudy
10:30 AM 33.8 °F - 19.4 °F 56% 29.86 in 6.2 mi Variable 1.2 mph - N/A   Partly Cloudy
11:00 AM 35.6 °F - 21.2 °F 56% 29.86 in 6.2 mi Variable 1.2 mph - N/A   Partly Cloudy
11:30 AM 37.4 °F - 23.0 °F 56% 29.86 in 6.2 mi Variable 2.3 mph - N/A   Partly Cloudy
12:00 PM 39.2 °F 35.9 °F 23.0 °F 52% 29.86 in 6.2 mi ENE 4.6 mph - N/A   Partly Cloudy
12:30 PM 41.0 °F - 23.0 °F 49% 29.86 in 6.2 mi East 2.3 mph - N/A   Partly Cloudy
1:00 PM 45 °F - 25 °F 32% 29.86 in 9 mi South 2.3 mph - -   Scattered Clouds
1:00 PM 41.0 °F 39.0 °F 23.0 °F 49% 29.86 in 6.2 mi SSW 3.5 mph - N/A   Partly Cloudy
1:30 PM 42.8 °F - 24.8 °F 49% 29.86 in 6.2 mi ESE 2.3 mph - N/A   Partly Cloudy
2:00 PM 42.8 °F - 24.8 °F 49% 29.86 in 6.2 mi Variable 2.3 mph - N/A   Mostly Cloudy
2:30 PM 42.8 °F 41.1 °F 23.0 °F 46% 29.86 in 6.2 mi Variable 3.5 mph - N/A   Mostly Cloudy
3:00 PM 41.0 °F 35.8 °F 19.4 °F 42% 29.86 in 6.2 mi NNE 8.1 mph - N/A   Mostly Cloudy
3:30 PM 41.0 °F 35.2 °F 19.4 °F 42% 29.86 in 6.2 mi NNE 9.2 mph - N/A   Mostly Cloudy
4:00 PM 41.0 °F 36.4 °F 19.4 °F 42% 29.86 in 6.2 mi NNE 6.9 mph - N/A   Mostly Cloudy
4:30 PM 41.0 °F - 19.4 °F 42% 29.86 in 6.2 mi Variable 2.3 mph - N/A   Mostly Cloudy
5:00 PM 41.0 °F - 21.2 °F 45% 29.86 in 6.2 mi Variable 1.2 mph - N/A   Mostly Cloudy
5:30 PM 41.0 °F - 26.6 °F 57% 29.89 in 6.2 mi South 1.2 mph - N/A   Mostly Cloudy
6:00 PM 39.2 °F 35.9 °F 30.2 °F 70% 29.89 in 6.2 mi SE 4.6 mph - N/A   Mostly Cloudy
7:00 PM 40 °F - 32 °F 63% 29.92 in 6 mi Calm Calm - -   Overcast
7:00 PM 37.4 °F - 30.2 °F 75% 29.92 in 6.2 mi Calm Calm - N/A   Mostly Cloudy
7:30 PM 37.4 °F 34.9 °F 30.2 °F 75% 29.92 in 6.2 mi East 3.5 mph - N/A   Mostly Cloudy
8:00 PM 35.6 °F 32.8 °F 23.0 °F 60% 29.92 in 6.2 mi NNE 3.5 mph - N/A   Scattered Clouds
8:30 PM 33.8 °F - 23.0 °F 65% 29.95 in 6.2 mi Variable 2.3 mph - N/A   Partly Cloudy
9:00 PM 32.0 °F 28.7 °F 24.8 °F 75% 29.95 in 6.2 mi NE 3.5 mph - N/A   Partly Cloudy
9:30 PM 33.8 °F 29.6 °F 23.0 °F 65% 29.95 in 6.2 mi NNE 4.6 mph - N/A   Partly Cloudy
10:00 PM 33.8 °F 29.6 °F 23.0 °F 65% 29.95 in 6.2 mi NNE 4.6 mph - N/A   Partly Cloudy
10:30 PM 33.8 °F - 23.0 °F 65% 29.95 in 6.2 mi Variable 1.2 mph - N/A   Partly Cloudy
11:00 PM 32.0 °F 28.7 °F 21.2 °F 64% 29.98 in 6.2 mi NNW 3.5 mph - N/A   Partly Cloudy
11:30 PM 32.0 °F - 21.2 °F 64% 29.98 in - Variable 1.2 mph - N/A   Clear